Flag for United Kingdom Weather past 2 weeks in Salisbury, England, United Kingdom

48 °F

Rain showers. Partly cloudy.

Feels Like: 43 °F
Forecast: N/A
Wind: 13 mph from West

Location: Boscombe Down

Current Time: Nov 29, 2015 at 11:20:14 PM

Latest Report: Nov 29, 2015 at 9:50 PM

Visibility: 2 mi

Pressure: 30.01 "Hg

Humidity: 100%

Dew point: 48 °F

Location of SalisburyLocation

Historic Weather in Salisbury — Graph


Salisbury temperature yesterday

Maximum temperature yesterday: 50 °F (at 4:50 PM)
Minimum temperature yesterday: 36 °F (at 5:50 AM)
Average temperature yesterday: 44 °F

Past Weeks' High & Low Weather Summary

High59 °F (Nov 15, 10:50 AM)100% (Nov 16, 9:50 PM)30.27 "Hg (Nov 16, 9:50 PM)
Low28 °F (Nov 21, 10:50 PM)45% (Nov 21, 12:50 PM)29.53 "Hg (Nov 17, 1:50 PM)
Average47 °F86%29.90 "Hg
* Reported Nov 14 9:50 PM — Nov 29 9:50 PM, Salisbury, Weather by CustomWeather, © 2015

Note: Actual official high and low records may vary slightly from our data, if they occured in-between our weather recording intervals... More about our weather records


Salisbury weather history for previous 24 hours

Time TempWeatherWind HumidityBarometerVisibility
9:50 PM
Sun, Nov 29
48 °FRain showers. Partly cloudy.13 mph100%30.01 "Hg2 mi
8:50 PM52 °FPassing clouds.23 mph82%29.95 "HgN/A
7:50 PM52 °FPassing clouds.23 mph82%29.92 "HgN/A
6:50 PM52 °FPassing clouds.26 mph88%29.89 "HgN/A
5:50 PM52 °FPartly cloudy.29 mph88%29.86 "Hg4 mi
3:50 PM54 °FLight rain. Mostly cloudy.29 mph77%29.83 "HgN/A
2:50 PM52 °FLight rain. Mostly cloudy.31 mph88%29.80 "HgN/A
1:50 PM54 °FLight rain. Partly sunny.30 mph77%29.80 "HgN/A
12:50 PM54 °FLight rain. Broken clouds.32 mph77%29.80 "HgN/A
11:50 AM54 °FBroken clouds.29 mph77%29.80 "HgN/A
10:50 AM52 °FPartly sunny.29 mph77%29.80 "HgN/A
9:50 AM52 °FLight rain. Broken clouds.26 mph77%29.80 "HgN/A
8:50 AM52 °FMore clouds than sun.24 mph72%29.77 "HgN/A
7:50 AM50 °FBroken clouds.25 mph88%29.77 "HgN/A
6:50 AM48 °FPassing clouds.21 mph94%29.77 "HgN/A
5:50 AM48 °FSprinkles. Passing clouds.17 mph87%29.77 "HgN/A
4:50 AM48 °FPartly cloudy.21 mph87%29.77 "HgN/A
3:50 AM48 °FPassing clouds.21 mph82%29.77 "HgN/A
2:50 AM48 °FPassing clouds.18 mph82%29.77 "HgN/A
1:50 AM48 °FSprinkles. Passing clouds.21 mph87%29.77 "HgN/A
12:50 AM50 °FPartly cloudy.21 mph76%29.74 "HgN/A
11:50 PM
Sat, Nov 28
48 °FPassing clouds.20 mph82%29.77 "HgN/A
Weather by CustomWeather, © 2015

See weather overviewHow to use our weather pages